{"data":{"norad_id":60238,"intl_designator":"2024-128D","name":"ISTSAT-1","alt_names":[],"object_type":"PAYLOAD","status":"ACTIVE","operator":null,"country":"POR","launch_date":"2024-07-09","launch_site_code":"FRGUI","launch_vehicle":null,"mission":null,"orbit_class":"UNKNOWN","rcs_meters":null,"size_class":null,"mass_kg":null,"dimensions":null,"purposes":[],"wikipedia_slug":null,"has_3d_model":false,"image_url":null,"decayed_at":null,"tle_current":{"epoch":"2026-09-22T20:30:22.529088Z","epoch_age_seconds":77713,"freshness":"FRESH","line1":"1 60238U 24128D   26265.85442742  .00003989  00000+0  23851-3 0  9993","line2":"2 60238  61.9869 220.5124 0024021 149.2040 211.0471 15.12617756121231","mean_motion":15.12617756,"eccentricity":0.0024021,"inclination_deg":61.9869,"raan_deg":220.5124,"arg_perigee_deg":149.204,"mean_anomaly_deg":211.0471,"bstar":0.00023851,"rev_number":12123,"period_min":95.199199816877,"perigee_km":511.63057823155,"apogee_km":544.81010016052,"semimajor_km":6906.357339196,"source":"CELESTRAK","updated_at":"2026-09-23T09:00:20.487082Z"}}}